Tracking 17145 objects as of 23-May-2015
HD Live streaming from Space Station

SL-14 DEB

Track SL-14 DEB now!
10-day predictions
SL-14 DEB is classified as:


NORAD ID: 19450
Int'l Code: 1978-100AH
Perigee: 1,684.0 km
Apogee: 1,709.5 km
Inclination: 82.5 °
Period: 120.2 minutes
Semi major axis: 8067 km
RCS: 0.0566 m2 (small)
Launch date: October 26, 1978
Source: Commonwealth of Independent States (former USSR) (CIS)

Note: This is SATELLITE DEBRIS
Your satellite tracking list
Your tracking list is empty





NASA's NSSDC Master Catalog

Two Line Element Set (TLE):
1 19450U 78100AH  15142.07132478  .00000002  00000-0 -83956-4 0  9998
2 19450 082.5475 157.1574 0015796 085.8946 333.0313 11.98057423174402

Source of the keplerian elements: AFSPC

N2YO: 375